Time,TemperatureF,DewpointF,PressureIn,WindDirection,WindDirectionDegrees,WindSpeedMPH,WindSpeedGustMPH,Humidity,HourlyPrecipIn,Conditions,Clouds,dailyrainin,SoftwareType,DateUTC
2013-02-08 00:00:00,22.6,3.0,29.86,SW,230,0.0,0.0,42,0.00,,SKC,0.00,VWS V14.01,2013-02-08 08:00:00,
2013-02-08 00:05:00,22.1,3.5,29.86,SW,230,0.0,0.0,44,0.00,,SKC,0.00,VWS V14.01,2013-02-08 08:05:00,
2013-02-08 00:10:00,21.9,3.8,29.86,SW,230,0.0,0.0,45,0.00,,SKC,0.00,VWS V14.01,2013-02-08 08:10:00,
2013-02-08 00:15:00,21.6,3.5,29.86,SW,230,0.0,0.0,45,0.00,,SKC,0.00,VWS V14.01,2013-02-08 08:15:00,
2013-02-08 00:20:00,21.2,4.1,29.86,SW,230,0.0,0.0,47,0.00,,SKC,0.00,VWS V14.01,2013-02-08 08:20:00,
2013-02-08 00:25:00,21.2,4.6,29.86,SW,230,0.0,0.0,48,0.00,,SKC,0.00,VWS V14.01,2013-02-08 08:25:00,
2013-02-08 00:30:00,21.4,5.2,29.86,WSW,247,0.0,0.0,49,0.00,,SKC,0.00,VWS V14.01,2013-02-08 08:30:00,
2013-02-08 00:35:00,21.4,4.8,29.86,WSW,248,0.0,0.0,48,0.00,,SKC,0.00,VWS V14.01,2013-02-08 08:35:00,
2013-02-08 00:40:00,21.0,4.4,29.86,WSW,248,0.0,0.0,48,0.00,,SKC,0.00,VWS V14.01,2013-02-08 08:40:00,
2013-02-08 00:45:00,20.8,5.1,29.86,SW,226,0.0,0.0,50,0.00,,SKC,0.00,VWS V14.01,2013-02-08 08:45:00,
2013-02-08 00:50:00,20.8,5.6,29.83,SW,226,0.0,0.0,51,0.00,,SKC,0.00,VWS V14.01,2013-02-08 08:50:00,
2013-02-08 00:55:00,20.7,5.0,29.83,SW,226,0.0,0.0,50,0.00,,SKC,0.00,VWS V14.01,2013-02-08 08:55:00,
2013-02-08 01:00:00,20.5,5.2,29.83,SW,226,0.0,0.0,51,0.00,,SKC,0.00,VWS V14.01,2013-02-08 09:00:00,
2013-02-08 01:05:00,20.1,4.9,29.83,SW,226,0.0,0.0,51,0.00,,SKC,0.00,VWS V14.01,2013-02-08 09:05:00,
2013-02-08 01:10:00,19.9,5.6,29.83,SW,226,0.0,0.0,53,0.00,,SKC,0.00,VWS V14.01,2013-02-08 09:10:00,
2013-02-08 01:15:00,19.9,6.0,29.83,SW,226,0.0,0.0,54,0.00,,SKC,0.00,VWS V14.01,2013-02-08 09:15:00,
2013-02-08 01:20:00,19.8,5.4,29.83,SW,226,0.0,0.0,53,0.00,,SKC,0.00,VWS V14.01,2013-02-08 09:20:00,
2013-02-08 01:25:00,19.2,5.3,29.83,SW,226,0.0,0.0,54,0.00,,SKC,0.00,VWS V14.01,2013-02-08 09:25:00,
2013-02-08 01:30:00,18.7,4.8,29.83,SW,226,0.0,0.0,54,0.00,,SKC,0.00,VWS V14.01,2013-02-08 09:30:00,
2013-02-08 01:35:00,18.5,5.4,29.83,SW,226,0.0,0.0,56,0.00,,SKC,0.00,VWS V14.01,2013-02-08 09:35:00,
2013-02-08 01:40:00,18.7,6.4,29.83,SW,226,0.0,0.0,58,0.00,,SKC,0.00,VWS V14.01,2013-02-08 09:40:00,
2013-02-08 01:45:00,18.9,6.5,29.83,SW,226,0.0,0.0,58,0.00,,SKC,0.00,VWS V14.01,2013-02-08 09:45:00,
2013-02-08 01:50:00,19.0,7.1,29.83,SW,226,0.0,0.0,59,0.00,,SKC,0.00,VWS V14.01,2013-02-08 09:50:00,
2013-02-08 01:55:00,18.5,6.2,29.83,SW,226,0.0,0.0,58,0.00,,SKC,0.00,VWS V14.01,2013-02-08 09:55:00,
2013-02-08 02:00:00,17.8,5.1,29.83,SW,226,0.0,0.0,57,0.00,,SKC,0.00,VWS V14.01,2013-02-08 10:00:00,
2013-02-08 02:05:00,17.6,5.3,29.83,SW,226,0.0,0.0,58,0.00,,SKC,0.00,VWS V14.01,2013-02-08 10:05:00,
2013-02-08 02:10:00,18.0,6.4,29.83,SW,226,0.0,0.0,60,0.00,,SKC,0.00,VWS V14.01,2013-02-08 10:10:00,
2013-02-08 02:15:00,18.1,6.6,29.83,SW,226,0.0,0.0,60,0.00,,SKC,0.00,VWS V14.01,2013-02-08 10:15:00,
2013-02-08 02:20:00,17.8,6.3,29.80,SW,226,0.0,0.0,60,0.00,,SKC,0.00,VWS V14.01,2013-02-08 10:20:00,
2013-02-08 02:25:00,17.4,5.9,29.80,SW,226,0.0,0.0,60,0.00,,SKC,0.00,VWS V14.01,2013-02-08 10:25:00,
2013-02-08 02:30:00,17.6,7.2,29.80,SW,222,0.0,0.0,63,0.00,,SKC,0.00,VWS V14.01,2013-02-08 10:30:00,
2013-02-08 02:35:00,18.3,8.9,29.80,SW,218,0.0,0.0,66,0.00,,SKC,0.00,VWS V14.01,2013-02-08 10:35:00,
2013-02-08 02:40:00,18.7,8.2,29.80,East,100,0.0,0.0,63,0.00,,SKC,0.00,VWS V14.01,2013-02-08 10:40:00,
2013-02-08 02:45:00,18.7,8.2,29.80,ESE,108,0.0,0.0,63,0.00,,SKC,0.00,VWS V14.01,2013-02-08 10:45:00,
2013-02-08 02:50:00,19.0,8.5,29.80,ESE,107,0.0,0.0,63,0.00,,SKC,0.00,VWS V14.01,2013-02-08 10:50:00,
2013-02-08 02:55:00,19.2,8.4,29.80,ESE,107,0.0,0.0,62,0.00,,SKC,0.00,VWS V14.01,2013-02-08 10:55:00,
2013-02-08 03:00:00,19.0,7.8,29.80,ESE,107,0.0,0.0,61,0.00,,SKC,0.00,VWS V14.01,2013-02-08 11:00:00,
2013-02-08 03:05:00,18.9,7.7,29.80,ESE,107,0.0,0.0,61,0.00,,SKC,0.00,VWS V14.01,2013-02-08 11:05:00,
2013-02-08 03:10:00,18.9,7.7,29.80,ESE,110,0.0,0.0,61,0.00,,SKC,0.00,VWS V14.01,2013-02-08 11:10:00,
2013-02-08 03:15:00,18.5,7.3,29.80,ESE,111,0.0,0.0,61,0.00,,SKC,0.00,VWS V14.01,2013-02-08 11:15:00,
2013-02-08 03:20:00,18.1,7.0,29.80,ESE,113,0.0,0.0,61,0.00,,SKC,0.00,VWS V14.01,2013-02-08 11:20:00,
2013-02-08 03:25:00,18.3,7.5,29.80,ESE,115,0.0,0.0,62,0.00,,SKC,0.00,VWS V14.01,2013-02-08 11:25:00,
2013-02-08 03:30:00,18.3,7.8,29.80,ESE,117,0.0,0.0,63,0.00,,SKC,0.00,VWS V14.01,2013-02-08 11:30:00,
2013-02-08 03:35:00,18.5,8.0,29.80,ESE,117,0.0,0.0,63,0.00,,SKC,0.00,VWS V14.01,2013-02-08 11:35:00,
2013-02-08 03:40:00,18.7,8.5,29.80,SE,127,3.6,3.6,64,0.00,,SKC,0.00,VWS V14.01,2013-02-08 11:40:00,
2013-02-08 03:45:00,19.4,9.2,29.80,SE,135,3.1,3.1,64,0.00,,SKC,0.00,VWS V14.01,2013-02-08 11:45:00,
2013-02-08 03:50:00,19.9,9.4,29.83,SE,136,0.0,0.0,63,0.00,,SKC,0.00,VWS V14.01,2013-02-08 11:50:00,
2013-02-08 03:55:00,20.3,8.6,29.83,SE,136,0.0,0.0,60,0.00,,SKC,0.00,VWS V14.01,2013-02-08 11:55:00,
2013-02-08 04:00:00,20.3,8.3,29.83,SE,136,0.0,0.0,59,0.00,,SKC,0.00,VWS V14.01,2013-02-08 12:00:00,
2013-02-08 04:05:00,20.1,7.7,29.83,SE,136,0.0,0.0,58,0.00,,SKC,0.00,VWS V14.01,2013-02-08 12:05:00,
2013-02-08 04:10:00,20.3,7.9,29.83,SE,139,0.0,0.0,58,0.00,,SKC,0.00,VWS V14.01,2013-02-08 12:10:00,
2013-02-08 04:15:00,20.3,7.5,29.83,SE,139,0.0,0.0,57,0.00,,SKC,0.00,VWS V14.01,2013-02-08 12:15:00,
2013-02-08 04:20:00,20.1,7.3,29.83,SE,139,0.0,0.0,57,0.00,,SKC,0.00,VWS V14.01,2013-02-08 12:20:00,
2013-02-08 04:25:00,19.9,7.2,29.83,SE,139,0.0,0.0,57,0.00,,SKC,0.00,VWS V14.01,2013-02-08 12:25:00,
2013-02-08 04:30:00,19.9,7.2,29.83,SE,139,0.0,0.0,57,0.00,,SKC,0.00,VWS V14.01,2013-02-08 12:30:00,
2013-02-08 04:35:00,20.1,7.3,29.83,SE,139,0.0,0.0,57,0.00,,SKC,0.00,VWS V14.01,2013-02-08 12:35:00,
2013-02-08 04:40:00,20.1,7.3,29.83,SE,139,0.0,0.0,57,0.00,,SKC,0.00,VWS V14.01,2013-02-08 12:40:00,
2013-02-08 04:45:00,19.9,7.2,29.83,SE,142,0.0,2.7,57,0.00,,SKC,0.00,VWS V14.01,2013-02-08 12:45:00,
2013-02-08 04:50:00,20.3,7.5,29.80,SE,143,2.2,3.1,57,0.00,,SKC,0.00,VWS V14.01,2013-02-08 12:50:00,
2013-02-08 04:55:00,20.7,7.8,29.80,SE,143,2.2,2.7,57,0.00,,SKC,0.00,VWS V14.01,2013-02-08 12:55:00,
2013-02-08 05:00:00,20.7,7.1,29.80,SE,131,5.4,5.4,55,0.00,,SKC,0.00,VWS V14.01,2013-02-08 13:00:00,
2013-02-08 05:05:00,20.8,7.2,29.80,SE,128,5.8,5.8,55,0.00,,SKC,0.00,VWS V14.01,2013-02-08 13:05:00,
2013-02-08 05:10:00,21.0,7.0,29.80,SE,129,2.7,2.7,54,0.00,,SKC,0.00,VWS V14.01,2013-02-08 13:10:00,
2013-02-08 05:15:00,20.8,6.8,29.80,SE,130,4.0,4.0,54,0.00,,SKC,0.00,VWS V14.01,2013-02-08 13:15:00,
2013-02-08 05:20:00,20.8,6.8,29.80,SE,128,2.2,2.2,54,0.00,,SKC,0.00,VWS V14.01,2013-02-08 13:20:00,
2013-02-08 05:25:00,21.0,7.0,29.80,ESE,123,2.2,3.1,54,0.00,,SKC,0.00,VWS V14.01,2013-02-08 13:25:00,
2013-02-08 05:30:00,21.0,7.0,29.80,SE,131,3.1,4.0,54,0.00,,SKC,0.00,VWS V14.01,2013-02-08 13:30:00,
2013-02-08 05:35:00,21.0,7.0,29.80,SE,134,2.7,2.7,54,0.00,,SKC,0.00,VWS V14.01,2013-02-08 13:35:00,
2013-02-08 05:40:00,21.0,7.0,29.80,SE,146,0.0,0.0,54,0.00,,SKC,0.00,VWS V14.01,2013-02-08 13:40:00,
2013-02-08 05:45:00,20.8,6.4,29.80,SE,146,0.0,0.0,53,0.00,,SKC,0.00,VWS V14.01,2013-02-08 13:45:00,
2013-02-08 05:50:00,20.5,6.1,29.80,SE,146,0.0,0.0,53,0.00,,SKC,0.00,VWS V14.01,2013-02-08 13:50:00,
2013-02-08 05:55:00,20.3,6.3,29.80,SSE,147,0.0,0.0,54,0.00,,SKC,0.00,VWS V14.01,2013-02-08 13:55:00,
2013-02-08 06:00:00,20.3,7.1,29.80,SSE,147,0.0,0.0,56,0.00,,SKC,0.00,VWS V14.01,2013-02-08 14:00:00,
2013-02-08 06:05:00,20.5,7.3,29.80,SSE,147,0.0,0.0,56,0.00,,SKC,0.00,VWS V14.01,2013-02-08 14:05:00,
2013-02-08 06:10:00,20.5,7.3,29.80,NNW,332,0.0,0.0,56,0.00,,SKC,0.00,VWS V14.01,2013-02-08 14:10:00,
2013-02-08 06:15:00,20.5,7.3,29.80,NNW,343,0.0,0.0,56,0.00,,SKC,0.00,VWS V14.01,2013-02-08 14:15:00,
2013-02-08 06:20:00,20.3,7.1,29.80,NNW,342,0.0,0.0,56,0.00,,SKC,0.00,VWS V14.01,2013-02-08 14:20:00,
2013-02-08 06:25:00,20.3,7.5,29.80,NNW,342,0.0,0.0,57,0.00,,SKC,0.00,VWS V14.01,2013-02-08 14:25:00,
2013-02-08 06:30:00,20.1,7.3,29.80,NNW,345,0.0,0.0,57,0.00,,SKC,0.00,VWS V14.01,2013-02-08 14:30:00,
2013-02-08 06:35:00,20.1,7.7,29.80,NE,42,0.0,0.0,58,0.00,,SKC,0.00,VWS V14.01,2013-02-08 14:35:00,
2013-02-08 06:40:00,20.1,8.1,29.80,NE,41,0.0,0.0,59,0.00,,SKC,0.00,VWS V14.01,2013-02-08 14:40:00,
2013-02-08 06:45:00,20.1,8.1,29.80,ENE,67,0.0,0.0,59,0.00,,SKC,0.00,VWS V14.01,2013-02-08 14:45:00,
2013-02-08 06:50:00,20.1,8.5,29.80,ENE,65,0.0,0.0,60,0.00,,SKC,0.00,VWS V14.01,2013-02-08 14:50:00,
2013-02-08 06:55:00,20.3,8.6,29.80,NE,53,0.0,0.0,60,0.00,,SKC,0.00,VWS V14.01,2013-02-08 14:55:00,
2013-02-08 07:00:00,20.5,8.8,29.80,ENE,63,0.0,0.0,60,0.00,,SKC,0.00,VWS V14.01,2013-02-08 15:00:00,
2013-02-08 07:05:00,20.5,8.8,29.80,NE,48,0.0,0.0,60,0.00,,SKC,0.00,VWS V14.01,2013-02-08 15:05:00,
2013-02-08 07:10:00,20.7,9.0,29.80,NE,48,0.0,0.0,60,0.00,,SKC,0.00,VWS V14.01,2013-02-08 15:10:00,
2013-02-08 07:15:00,20.8,9.2,29.80,ENE,62,0.0,0.0,60,0.00,,SKC,0.00,VWS V14.01,2013-02-08 15:15:00,
2013-02-08 07:20:00,21.0,8.9,29.80,ENE,62,0.0,0.0,59,0.00,,SKC,0.00,VWS V14.01,2013-02-08 15:20:00,
2013-02-08 07:25:00,21.2,9.1,29.80,ENE,62,0.0,0.0,59,0.00,,SKC,0.00,VWS V14.01,2013-02-08 15:25:00,
2013-02-08 07:30:00,21.6,9.5,29.80,ENE,62,0.0,0.0,59,0.00,,SKC,0.00,VWS V14.01,2013-02-08 15:30:00,
2013-02-08 07:35:00,21.9,9.4,29.80,ENE,62,0.0,0.0,58,0.00,,SKC,0.00,VWS V14.01,2013-02-08 15:35:00,
2013-02-08 07:40:00,22.3,9.8,29.80,ENE,62,0.0,0.0,58,0.00,,SKC,0.00,VWS V14.01,2013-02-08 15:40:00,
2013-02-08 07:45:00,22.8,10.3,29.80,ENE,62,0.0,0.0,58,0.00,,SKC,0.00,VWS V14.01,2013-02-08 15:45:00,
2013-02-08 07:50:00,23.4,8.8,29.83,ENE,62,0.0,0.0,53,0.00,,SKC,0.00,VWS V14.01,2013-02-08 15:50:00,
2013-02-08 07:55:00,23.9,8.9,29.83,ENE,62,0.0,0.0,52,0.00,,SKC,0.00,VWS V14.01,2013-02-08 15:55:00,
2013-02-08 08:00:00,24.4,8.5,29.83,ENE,62,0.0,0.0,50,0.00,,SKC,0.00,VWS V14.01,2013-02-08 16:00:00,
2013-02-08 08:05:00,24.8,7.0,29.83,South,170,0.0,0.0,46,0.00,,SKC,0.00,VWS V14.01,2013-02-08 16:05:00,
2013-02-08 08:10:00,25.2,6.8,29.83,SSW,199,0.0,0.0,45,0.00,,SKC,0.00,VWS V14.01,2013-02-08 16:10:00,
2013-02-08 08:15:00,25.3,6.5,29.83,SSW,194,0.0,0.0,44,0.00,,SKC,0.00,VWS V14.01,2013-02-08 16:15:00,
2013-02-08 08:20:00,25.7,6.8,29.83,SSW,203,3.1,4.0,44,0.00,,SKC,0.00,VWS V14.01,2013-02-08 16:20:00,
2013-02-08 08:25:00,25.9,6.5,29.83,South,184,0.0,2.2,43,0.00,,SKC,0.00,VWS V14.01,2013-02-08 16:25:00,
2013-02-08 08:30:00,26.1,6.6,29.83,South,182,0.0,2.2,43,0.00,,SKC,0.00,VWS V14.01,2013-02-08 16:30:00,
2013-02-08 08:35:00,26.4,6.4,29.83,SW,215,0.0,0.0,42,0.00,,SKC,0.00,VWS V14.01,2013-02-08 16:35:00,
2013-02-08 08:40:00,26.6,7.1,29.83,SW,228,0.0,3.1,43,0.00,,SKC,0.00,VWS V14.01,2013-02-08 16:40:00,
2013-02-08 08:45:00,27.0,6.9,29.83,SW,219,0.0,0.0,42,0.00,,SKC,0.00,VWS V14.01,2013-02-08 16:45:00,
2013-02-08 08:50:00,27.1,7.1,29.86,SW,226,0.0,0.0,42,0.00,,SKC,0.00,VWS V14.01,2013-02-08 16:50:00,
2013-02-08 08:55:00,27.3,7.3,29.86,SW,223,0.0,0.0,42,0.00,,SKC,0.00,VWS V14.01,2013-02-08 16:55:00,
2013-02-08 09:00:00,27.5,7.4,29.86,SW,220,0.0,0.0,42,0.00,,SKC,0.00,VWS V14.01,2013-02-08 17:00:00,
2013-02-08 09:05:00,27.5,7.4,29.86,WSW,242,0.0,0.0,42,0.00,,SKC,0.00,VWS V14.01,2013-02-08 17:05:00,
2013-02-08 09:10:00,27.9,7.8,29.86,SSW,213,0.0,0.0,42,0.00,,SKC,0.00,VWS V14.01,2013-02-08 17:10:00,
2013-02-08 09:15:00,27.9,7.8,29.86,SSW,198,0.0,0.0,42,0.00,,SKC,0.00,VWS V14.01,2013-02-08 17:15:00,
2013-02-08 09:20:00,28.0,7.9,29.86,SSW,207,0.0,0.0,42,0.00,,SKC,0.00,VWS V14.01,2013-02-08 17:20:00,
2013-02-08 09:25:00,28.8,8.6,29.86,SW,227,0.0,0.0,42,0.00,,SKC,0.00,VWS V14.01,2013-02-08 17:25:00,
2013-02-08 09:30:00,29.5,8.7,29.86,South,171,0.0,0.0,41,0.00,,SKC,0.00,VWS V14.01,2013-02-08 17:30:00,
2013-02-08 09:35:00,29.8,9.6,29.86,SSW,197,0.0,0.0,42,0.00,,SKC,0.00,VWS V14.01,2013-02-08 17:35:00,
2013-02-08 09:40:00,30.9,10.0,29.86,SW,214,0.0,0.0,41,0.00,,SKC,0.00,VWS V14.01,2013-02-08 17:40:00,
2013-02-08 09:45:00,31.8,10.8,29.86,SW,217,0.0,0.0,41,0.00,,SKC,0.00,VWS V14.01,2013-02-08 17:45:00,
2013-02-08 09:50:00,32.2,10.6,29.86,WSW,247,0.0,0.0,40,0.00,,SKC,0.00,VWS V14.01,2013-02-08 17:50:00,
2013-02-08 09:55:00,32.0,10.4,29.86,SSE,167,3.1,3.1,40,0.00,,SKC,0.00,VWS V14.01,2013-02-08 17:55:00,
2013-02-08 10:00:00,30.9,9.4,29.86,West,281,2.7,4.0,40,0.00,,SKC,0.00,VWS V14.01,2013-02-08 18:00:00,
2013-02-08 10:05:00,30.4,9.5,29.89,West,278,4.0,5.4,41,0.00,,SKC,0.00,VWS V14.01,2013-02-08 18:05:00,
2013-02-08 10:10:00,30.7,9.8,29.89,SW,232,0.0,0.0,41,0.00,,SKC,0.00,VWS V14.01,2013-02-08 18:10:00,
2013-02-08 10:15:00,32.0,10.4,29.89,WNW,289,0.0,2.7,40,0.00,,SKC,0.00,VWS V14.01,2013-02-08 18:15:00,
2013-02-08 10:20:00,32.2,10.6,29.89,NW,309,3.6,3.6,40,0.00,,SKC,0.00,VWS V14.01,2013-02-08 18:20:00,
2013-02-08 10:25:00,32.7,10.5,29.89,NW,310,5.4,8.3,39,0.00,,SKC,0.00,VWS V14.01,2013-02-08 18:25:00,
2013-02-08 10:30:00,32.4,10.2,29.89,North,1,5.4,5.4,39,0.00,,SKC,0.00,VWS V14.01,2013-02-08 18:30:00,
2013-02-08 10:35:00,32.5,10.9,29.89,WNW,299,9.6,9.6,40,0.00,,SKC,0.00,VWS V14.01,2013-02-08 18:35:00,
2013-02-08 10:40:00,33.1,10.2,29.89,NW,309,5.8,8.1,38,0.00,,SKC,0.00,VWS V14.01,2013-02-08 18:40:00,
2013-02-08 10:45:00,32.9,11.2,29.89,North,353,4.9,8.3,40,0.00,,SKC,0.00,VWS V14.01,2013-02-08 18:45:00,
2013-02-08 10:50:00,33.4,10.6,29.89,NNW,333,6.3,6.3,38,0.00,,SKC,0.00,VWS V14.01,2013-02-08 18:50:00,
2013-02-08 10:55:00,33.8,9.7,29.89,NW,311,5.4,8.1,36,0.00,,SKC,0.00,VWS V14.01,2013-02-08 18:55:00,
2013-02-08 11:00:00,34.5,9.7,29.89,WNW,301,6.3,8.1,35,0.00,,SKC,0.00,VWS V14.01,2013-02-08 19:00:00,
2013-02-08 11:05:00,35.4,10.5,29.86,NNW,330,5.8,5.8,35,0.00,,SKC,0.00,VWS V14.01,2013-02-08 19:05:00,
2013-02-08 11:10:00,36.0,9.7,29.86,NW,323,5.4,5.8,33,0.00,,SKC,0.00,VWS V14.01,2013-02-08 19:10:00,
2013-02-08 11:15:00,36.5,9.5,29.86,North,353,4.9,7.6,32,0.00,,SKC,0.00,VWS V14.01,2013-02-08 19:15:00,
2013-02-08 11:20:00,36.1,9.1,29.86,NW,318,3.6,6.3,32,0.00,,SKC,0.00,VWS V14.01,2013-02-08 19:20:00,
2013-02-08 11:25:00,35.2,9.0,29.86,NNW,342,4.0,5.4,33,0.00,,SKC,0.00,VWS V14.01,2013-02-08 19:25:00,
2013-02-08 11:30:00,36.1,9.1,29.86,NNW,344,4.0,6.3,32,0.00,,SKC,0.00,VWS V14.01,2013-02-08 19:30:00,
2013-02-08 11:35:00,36.9,9.8,29.86,WNW,296,3.6,4.0,32,0.00,,SKC,0.00,VWS V14.01,2013-02-08 19:35:00,
2013-02-08 11:40:00,37.0,9.9,29.86,NW,325,7.6,9.6,32,0.00,,SKC,0.00,VWS V14.01,2013-02-08 19:40:00,
2013-02-08 11:45:00,35.6,8.0,29.86,WNW,303,5.4,8.3,31,0.00,,SKC,0.00,VWS V14.01,2013-02-08 19:45:00,
2013-02-08 11:50:00,34.0,6.5,29.83,NNW,344,6.3,7.6,31,0.00,,SKC,0.00,VWS V14.01,2013-02-08 19:50:00,
2013-02-08 11:55:00,35.1,8.2,29.83,NW,325,0.0,0.0,32,0.00,,SKC,0.00,VWS V14.01,2013-02-08 19:55:00,
2013-02-08 12:00:00,37.0,9.2,29.83,NNW,340,4.9,4.9,31,0.00,,SKC,0.00,VWS V14.01,2013-02-08 20:00:00,
2013-02-08 12:05:00,38.7,9.9,29.83,NNW,340,8.7,8.7,30,0.00,,SKC,0.00,VWS V14.01,2013-02-08 20:05:00,
2013-02-08 12:10:00,37.9,8.5,29.83,NNW,344,2.7,4.0,29,0.00,,SKC,0.00,VWS V14.01,2013-02-08 20:10:00,
2013-02-08 12:15:00,36.9,8.3,29.83,WNW,291,5.8,5.8,30,0.00,,SKC,0.00,VWS V14.01,2013-02-08 20:15:00,
2013-02-08 12:20:00,36.3,7.9,29.83,NNW,328,5.8,5.8,30,0.00,,SKC,0.00,VWS V14.01,2013-02-08 20:20:00,
2013-02-08 12:25:00,35.8,7.4,29.83,NNW,331,6.3,7.6,30,0.00,,SKC,0.00,VWS V14.01,2013-02-08 20:25:00,
2013-02-08 12:30:00,35.1,6.8,29.83,NNW,334,7.6,8.3,30,0.00,,SKC,0.00,VWS V14.01,2013-02-08 20:30:00,
2013-02-08 12:35:00,34.7,6.4,29.83,NNW,335,2.7,5.4,30,0.00,,SKC,0.00,VWS V14.01,2013-02-08 20:35:00,
2013-02-08 12:40:00,36.3,7.9,29.83,West,275,3.1,8.1,30,0.00,,SKC,0.00,VWS V14.01,2013-02-08 20:40:00,
2013-02-08 12:45:00,37.6,8.2,29.83,North,357,6.3,10.5,29,0.00,,SKC,0.00,VWS V14.01,2013-02-08 20:45:00,
2013-02-08 12:50:00,37.0,7.8,29.83,North,353,3.6,3.6,29,0.00,,SKC,0.00,VWS V14.01,2013-02-08 20:50:00,
2013-02-08 12:55:00,38.7,9.2,29.83,North,357,5.8,8.1,29,0.00,,SKC,0.00,VWS V14.01,2013-02-08 20:55:00,
2013-02-08 13:00:00,37.9,8.5,29.83,NNW,346,0.0,2.7,29,0.00,,SKC,0.00,VWS V14.01,2013-02-08 21:00:00,
2013-02-08 13:05:00,37.6,5.8,29.83,North,357,6.3,6.3,26,0.00,,SKC,0.00,VWS V14.01,2013-02-08 21:05:00,
2013-02-08 13:10:00,38.1,8.7,29.83,North,353,0.0,2.7,29,0.00,,SKC,0.00,VWS V14.01,2013-02-08 21:10:00,
2013-02-08 13:15:00,37.8,8.4,29.83,NNE,32,7.6,8.1,29,0.00,,SKC,0.00,VWS V14.01,2013-02-08 21:15:00,
2013-02-08 13:20:00,36.3,7.1,29.83,NW,323,5.8,10.5,29,0.00,,SKC,0.00,VWS V14.01,2013-02-08 21:20:00,
2013-02-08 13:25:00,36.1,7.0,29.83,NNW,345,4.0,7.2,29,0.00,,SKC,0.00,VWS V14.01,2013-02-08 21:25:00,
2013-02-08 13:30:00,36.7,7.4,29.83,NNW,344,8.3,10.5,29,0.00,,SKC,0.00,VWS V14.01,2013-02-08 21:30:00,
2013-02-08 13:35:00,36.9,8.3,29.83,NNW,337,12.3,13.2,30,0.00,,SKC,0.00,VWS V14.01,2013-02-08 21:35:00,
2013-02-08 13:40:00,36.1,7.7,29.83,NNW,343,14.1,14.1,30,0.00,,SKC,0.00,VWS V14.01,2013-02-08 21:40:00,
2013-02-08 13:45:00,36.0,7.6,29.83,NNW,343,11.0,11.0,30,0.00,,SKC,0.00,VWS V14.01,2013-02-08 21:45:00,
2013-02-08 13:50:00,35.8,7.4,29.83,NW,324,8.1,8.1,30,0.00,,SKC,0.00,VWS V14.01,2013-02-08 21:50:00,
2013-02-08 13:55:00,36.3,7.9,29.83,NNW,341,8.3,10.5,30,0.00,,SKC,0.00,VWS V14.01,2013-02-08 21:55:00,
2013-02-08 14:00:00,35.6,7.2,29.83,North,349,7.6,7.6,30,0.00,,SKC,0.00,VWS V14.01,2013-02-08 22:00:00,
2013-02-08 14:05:00,35.1,7.5,29.83,North,2,15.0,17.4,31,0.00,,SKC,0.00,VWS V14.01,2013-02-08 22:05:00,
2013-02-08 14:10:00,34.7,7.2,29.83,NW,324,6.3,10.5,31,0.00,,SKC,0.00,VWS V14.01,2013-02-08 22:10:00,
2013-02-08 14:15:00,34.5,7.0,29.83,North,353,4.0,8.1,31,0.00,,SKC,0.00,VWS V14.01,2013-02-08 22:15:00,
2013-02-08 14:20:00,34.3,6.9,29.83,NNW,342,10.1,10.1,31,0.00,,SKC,0.00,VWS V14.01,2013-02-08 22:20:00,
2013-02-08 14:25:00,35.1,7.5,29.83,NNW,343,5.8,5.8,31,0.00,,SKC,0.00,VWS V14.01,2013-02-08 22:25:00,
2013-02-08 14:30:00,35.6,7.2,29.83,NNW,343,5.8,5.8,30,0.00,,SKC,0.00,VWS V14.01,2013-02-08 22:30:00,
2013-02-08 14:35:00,36.1,7.7,29.83,NW,317,13.2,13.2,30,0.00,,SKC,0.00,VWS V14.01,2013-02-08 22:35:00,
2013-02-08 14:40:00,36.1,7.7,29.83,NNW,336,6.3,6.3,30,0.00,,SKC,0.00,VWS V14.01,2013-02-08 22:40:00,
2013-02-08 14:45:00,36.1,7.7,29.83,NNW,327,12.8,12.8,30,0.00,,SKC,0.00,VWS V14.01,2013-02-08 22:45:00,
2013-02-08 14:50:00,35.8,7.4,29.83,NNW,344,11.0,12.8,30,0.00,,SKC,0.00,VWS V14.01,2013-02-08 22:50:00,
2013-02-08 14:55:00,35.4,7.8,29.83,North,357,8.7,10.5,31,0.00,,SKC,0.00,VWS V14.01,2013-02-08 22:55:00,
2013-02-08 15:00:00,34.5,7.0,29.83,North,353,7.6,10.1,31,0.00,,SKC,0.00,VWS V14.01,2013-02-08 23:00:00,
2013-02-08 15:05:00,34.5,7.0,29.83,North,353,8.1,8.1,31,0.00,,SKC,0.00,VWS V14.01,2013-02-08 23:05:00,
2013-02-08 15:10:00,34.9,6.6,29.83,North,357,11.9,12.8,30,0.00,,SKC,0.00,VWS V14.01,2013-02-08 23:10:00,
2013-02-08 15:15:00,35.1,6.8,29.83,NNW,341,5.8,6.3,30,0.00,,SKC,0.00,VWS V14.01,2013-02-08 23:15:00,
2013-02-08 15:20:00,36.3,7.9,29.83,North,353,12.3,12.3,30,0.00,,SKC,0.00,VWS V14.01,2013-02-08 23:20:00,
2013-02-08 15:25:00,35.8,7.4,29.83,North,353,3.6,8.7,30,0.00,,SKC,0.00,VWS V14.01,2013-02-08 23:25:00,
2013-02-08 15:30:00,35.6,7.2,29.83,North,353,8.7,8.7,30,0.00,,SKC,0.00,VWS V14.01,2013-02-08 23:30:00,
2013-02-08 15:35:00,35.1,6.8,29.83,North,353,3.1,6.3,30,0.00,,SKC,0.00,VWS V14.01,2013-02-08 23:35:00,
2013-02-08 15:40:00,35.1,6.8,29.83,NNW,336,8.1,8.7,30,0.00,,SKC,0.00,VWS V14.01,2013-02-08 23:40:00,
2013-02-08 15:45:00,35.1,6.8,29.83,North,0,4.9,8.1,30,0.00,,SKC,0.00,VWS V14.01,2013-02-08 23:45:00,
2013-02-08 15:50:00,34.7,6.4,29.83,NNW,337,5.4,5.4,30,0.00,,SKC,0.00,VWS V14.01,2013-02-08 23:50:00,
2013-02-08 15:55:00,34.3,6.1,29.83,NNW,327,5.8,8.1,30,0.00,,SKC,0.00,VWS V14.01,2013-02-08 23:55:00,
2013-02-08 16:00:00,34.3,6.1,29.83,NNW,339,6.3,6.3,30,0.00,,SKC,0.00,VWS V14.01,2013-02-09 00:00:00,
2013-02-08 16:05:00,34.3,6.1,29.86,North,350,6.3,10.5,30,0.00,,SKC,0.00,VWS V14.01,2013-02-09 00:05:00,
2013-02-08 16:10:00,34.3,6.1,29.86,NNW,348,5.8,7.2,30,0.00,,SKC,0.00,VWS V14.01,2013-02-09 00:10:00,
2013-02-08 16:15:00,34.0,5.8,29.86,WSW,245,12.3,12.3,30,0.00,,SKC,0.00,VWS V14.01,2013-02-09 00:15:00,
2013-02-08 16:20:00,33.8,5.7,29.86,North,357,10.5,11.4,30,0.00,,SKC,0.00,VWS V14.01,2013-02-09 00:20:00,
2013-02-08 16:25:00,33.4,6.1,29.86,North,0,5.4,8.7,31,0.00,,SKC,0.00,VWS V14.01,2013-02-09 00:25:00,
2013-02-08 16:30:00,33.3,5.9,29.86,NW,307,6.3,6.3,31,0.00,,SKC,0.00,VWS V14.01,2013-02-09 00:30:00,
2013-02-08 16:35:00,33.1,5.8,29.86,North,353,2.7,2.7,31,0.00,,SKC,0.00,VWS V14.01,2013-02-09 00:35:00,
2013-02-08 16:40:00,33.1,5.8,29.86,North,353,5.8,5.8,31,0.00,,SKC,0.00,VWS V14.01,2013-02-09 00:40:00,
2013-02-08 16:45:00,33.1,5.8,29.86,NNE,19,4.0,5.4,31,0.00,,SKC,0.00,VWS V14.01,2013-02-09 00:45:00,
2013-02-08 16:50:00,33.1,5.8,29.89,NNW,329,8.3,8.3,31,0.00,,SKC,0.00,VWS V14.01,2013-02-09 00:50:00,
2013-02-08 16:55:00,33.1,5.8,29.89,NNW,328,7.6,7.6,31,0.00,,SKC,0.00,VWS V14.01,2013-02-09 00:55:00,
2013-02-08 17:00:00,32.9,5.6,29.89,WNW,295,4.9,4.9,31,0.00,,SKC,0.00,VWS V14.01,2013-02-09 01:00:00,
2013-02-08 17:05:00,32.7,5.4,29.89,North,353,10.1,10.1,31,0.00,,SKC,0.00,VWS V14.01,2013-02-09 01:05:00,
2013-02-08 17:10:00,32.5,5.3,29.89,NNW,333,5.4,5.8,31,0.00,,SKC,0.00,VWS V14.01,2013-02-09 01:10:00,
2013-02-08 17:15:00,32.4,5.1,29.89,NNW,346,8.3,8.3,31,0.00,,SKC,0.00,VWS V14.01,2013-02-09 01:15:00,
2013-02-08 17:20:00,32.2,5.7,29.86,NNW,338,7.6,7.6,32,0.00,,SKC,0.00,VWS V14.01,2013-02-09 01:20:00,
2013-02-08 17:25:00,32.2,5.7,29.86,North,357,4.0,4.0,32,0.00,,SKC,0.00,VWS V14.01,2013-02-09 01:25:00,
2013-02-08 17:30:00,32.2,5.7,29.86,North,357,5.8,5.8,32,0.00,,SKC,0.00,VWS V14.01,2013-02-09 01:30:00,
2013-02-08 17:35:00,32.0,5.5,29.86,NNW,344,5.4,7.6,32,0.00,,SKC,0.00,VWS V14.01,2013-02-09 01:35:00,
2013-02-08 17:40:00,31.8,6.0,29.86,NW,314,6.3,6.3,33,0.00,,SKC,0.00,VWS V14.01,2013-02-09 01:40:00,
2013-02-08 17:45:00,31.6,5.8,29.86,North,357,7.6,7.6,33,0.00,,SKC,0.00,VWS V14.01,2013-02-09 01:45:00,
2013-02-08 17:50:00,31.6,5.8,29.86,NNW,343,5.8,5.8,33,0.00,,SKC,0.00,VWS V14.01,2013-02-09 01:50:00,
2013-02-08 17:55:00,31.5,6.3,29.86,NNW,340,8.1,10.1,34,0.00,,SKC,0.00,VWS V14.01,2013-02-09 01:55:00,
2013-02-08 18:00:00,31.3,6.2,29.86,NNW,341,8.3,8.7,34,0.00,,SKC,0.00,VWS V14.01,2013-02-09 02:00:00,
2013-02-08 18:05:00,31.1,6.0,29.89,North,357,7.2,8.7,34,0.00,,SKC,0.00,VWS V14.01,2013-02-09 02:05:00,
2013-02-08 18:10:00,30.9,5.9,29.89,North,0,10.5,10.5,34,0.00,,SKC,0.00,VWS V14.01,2013-02-09 02:10:00,
2013-02-08 18:15:00,30.7,6.3,29.89,NW,326,5.8,5.8,35,0.00,,SKC,0.00,VWS V14.01,2013-02-09 02:15:00,
2013-02-08 18:20:00,30.6,6.2,29.89,North,357,5.4,5.4,35,0.00,,SKC,0.00,VWS V14.01,2013-02-09 02:20:00,
2013-02-08 18:25:00,30.6,6.8,29.89,North,1,6.3,6.3,36,0.00,,SKC,0.00,VWS V14.01,2013-02-09 02:25:00,
2013-02-08 18:30:00,30.4,6.6,29.89,North,357,5.8,5.8,36,0.00,,SKC,0.00,VWS V14.01,2013-02-09 02:30:00,
2013-02-08 18:35:00,30.2,7.1,29.89,North,2,5.4,5.4,37,0.00,,SKC,0.00,VWS V14.01,2013-02-09 02:35:00,
2013-02-08 18:40:00,30.0,7.5,29.89,NNW,340,3.6,5.8,38,0.00,,SKC,0.00,VWS V14.01,2013-02-09 02:40:00,
2013-02-08 18:45:00,29.8,7.9,29.89,NNW,340,6.3,6.3,39,0.00,,SKC,0.00,VWS V14.01,2013-02-09 02:45:00,
2013-02-08 18:50:00,29.7,7.8,29.89,North,2,5.4,5.4,39,0.00,,SKC,0.00,VWS V14.01,2013-02-09 02:50:00,
2013-02-08 18:55:00,29.7,7.8,29.89,North,0,10.5,10.5,39,0.00,,SKC,0.00,VWS V14.01,2013-02-09 02:55:00,
2013-02-08 19:00:00,29.8,7.3,29.89,North,0,6.3,10.5,38,0.00,,SKC,0.00,VWS V14.01,2013-02-09 03:00:00,
2013-02-08 19:05:00,30.0,6.9,29.89,NW,316,6.3,6.3,37,0.00,,SKC,0.00,VWS V14.01,2013-02-09 03:05:00,
2013-02-08 19:10:00,30.0,6.9,29.89,North,0,8.7,8.7,37,0.00,,SKC,0.00,VWS V14.01,2013-02-09 03:10:00,
2013-02-08 19:15:00,30.0,6.9,29.89,NNW,343,3.6,3.6,37,0.00,,SKC,0.00,VWS V14.01,2013-02-09 03:15:00,
2013-02-08 19:20:00,30.0,7.5,29.89,North,353,6.3,8.7,38,0.00,,SKC,0.00,VWS V14.01,2013-02-09 03:20:00,
2013-02-08 19:25:00,29.8,7.3,29.89,NW,325,2.7,4.0,38,0.00,,SKC,0.00,VWS V14.01,2013-02-09 03:25:00,
2013-02-08 19:30:00,29.7,7.2,29.89,North,0,2.7,6.3,38,0.00,,SKC,0.00,VWS V14.01,2013-02-09 03:30:00,
2013-02-08 19:35:00,29.7,7.2,29.89,North,349,8.1,8.1,38,0.00,,SKC,0.00,VWS V14.01,2013-02-09 03:35:00,
2013-02-08 19:40:00,29.7,7.2,29.89,NNW,327,3.1,3.1,38,0.00,,SKC,0.00,VWS V14.01,2013-02-09 03:40:00,
2013-02-08 19:45:00,29.5,7.0,29.89,North,0,3.6,4.5,38,0.00,,SKC,0.00,VWS V14.01,2013-02-09 03:45:00,
2013-02-08 19:50:00,29.3,6.9,29.89,North,0,2.7,2.7,38,0.00,,SKC,0.00,VWS V14.01,2013-02-09 03:50:00,
2013-02-08 19:55:00,29.3,6.9,29.89,NNW,345,2.7,4.0,38,0.00,,SKC,0.00,VWS V14.01,2013-02-09 03:55:00,
2013-02-08 20:00:00,28.9,7.1,29.89,NNW,337,3.6,4.0,39,0.00,,SKC,0.00,VWS V14.01,2013-02-09 04:00:00,
2013-02-08 20:05:00,28.8,6.4,29.92,NNE,30,5.8,6.3,38,0.00,,SKC,0.00,VWS V14.01,2013-02-09 04:05:00,
2013-02-08 20:10:00,28.8,6.4,29.92,NNW,346,5.8,8.1,38,0.00,,SKC,0.00,VWS V14.01,2013-02-09 04:10:00,
2013-02-08 20:15:00,28.8,6.4,29.92,NNW,343,4.9,4.9,38,0.00,,SKC,0.00,VWS V14.01,2013-02-09 04:15:00,
2013-02-08 20:20:00,28.6,6.2,29.92,North,357,2.7,4.9,38,0.00,,SKC,0.00,VWS V14.01,2013-02-09 04:20:00,
2013-02-08 20:25:00,28.4,6.1,29.92,North,350,4.0,4.0,38,0.00,,SKC,0.00,VWS V14.01,2013-02-09 04:25:00,
2013-02-08 20:30:00,28.4,6.1,29.92,NNW,337,3.6,3.6,38,0.00,,SKC,0.00,VWS V14.01,2013-02-09 04:30:00,
2013-02-08 20:35:00,27.9,5.6,29.92,North,0,4.9,4.9,38,0.00,,SKC,0.00,VWS V14.01,2013-02-09 04:35:00,
2013-02-08 20:40:00,27.5,6.4,29.92,NNW,342,3.1,3.1,40,0.00,,SKC,0.00,VWS V14.01,2013-02-09 04:40:00,
2013-02-08 20:45:00,27.3,6.2,29.92,NNW,338,3.6,3.6,40,0.00,,SKC,0.00,VWS V14.01,2013-02-09 04:45:00,
2013-02-08 20:50:00,27.1,6.6,29.92,North,353,0.0,0.0,41,0.00,,SKC,0.00,VWS V14.01,2013-02-09 04:50:00,
2013-02-08 20:55:00,27.1,6.6,29.92,North,357,0.0,0.0,41,0.00,,SKC,0.00,VWS V14.01,2013-02-09 04:55:00,
2013-02-08 21:00:00,27.3,6.7,29.92,NNW,329,2.7,6.3,41,0.00,,SKC,0.00,VWS V14.01,2013-02-09 05:00:00,
2013-02-08 21:05:00,27.5,6.9,29.92,North,1,0.0,0.0,41,0.00,,SKC,0.00,VWS V14.01,2013-02-09 05:05:00,
2013-02-08 21:10:00,27.5,6.9,29.92,North,353,0.0,0.0,41,0.00,,SKC,0.00,VWS V14.01,2013-02-09 05:10:00,
2013-02-08 21:15:00,27.7,7.1,29.92,North,350,3.1,3.1,41,0.00,,SKC,0.00,VWS V14.01,2013-02-09 05:15:00,
2013-02-08 21:20:00,27.5,6.9,29.92,North,0,6.3,6.3,41,0.00,,SKC,0.00,VWS V14.01,2013-02-09 05:20:00,
2013-02-08 21:25:00,27.3,6.7,29.92,NNW,339,0.0,0.0,41,0.00,,SKC,0.00,VWS V14.01,2013-02-09 05:25:00,
2013-02-08 21:30:00,26.8,5.7,29.92,NW,322,0.0,0.0,40,0.00,,SKC,0.00,VWS V14.01,2013-02-09 05:30:00,
2013-02-08 21:35:00,25.7,5.3,29.92,NW,323,0.0,0.0,41,0.00,,SKC,0.00,VWS V14.01,2013-02-09 05:35:00,
2013-02-08 21:40:00,25.0,4.6,29.92,NW,325,0.0,0.0,41,0.00,,SKC,0.00,VWS V14.01,2013-02-09 05:40:00,
2013-02-08 21:45:00,24.4,4.7,29.92,NNW,331,0.0,0.0,42,0.00,,SKC,0.00,VWS V14.01,2013-02-09 05:45:00,
2013-02-08 21:50:00,24.1,4.8,29.92,NNW,335,0.0,0.0,43,0.00,,SKC,0.00,VWS V14.01,2013-02-09 05:50:00,
2013-02-08 21:55:00,23.9,5.7,29.92,NW,306,3.6,3.6,45,0.00,,SKC,0.00,VWS V14.01,2013-02-09 05:55:00,
2013-02-08 22:00:00,24.1,5.8,29.92,NW,317,0.0,0.0,45,0.00,,SKC,0.00,VWS V14.01,2013-02-09 06:00:00,
2013-02-08 22:05:00,24.4,5.7,29.92,NW,316,0.0,0.0,44,0.00,,SKC,0.00,VWS V14.01,2013-02-09 06:05:00,
2013-02-08 22:10:00,24.4,5.7,29.92,NW,316,0.0,0.0,44,0.00,,SKC,0.00,VWS V14.01,2013-02-09 06:10:00,
2013-02-08 22:15:00,24.3,5.5,29.92,NW,316,0.0,0.0,44,0.00,,SKC,0.00,VWS V14.01,2013-02-09 06:15:00,
2013-02-08 22:20:00,23.5,4.3,29.92,NW,316,0.0,0.0,43,0.00,,SKC,0.00,VWS V14.01,2013-02-09 06:20:00,
2013-02-08 22:25:00,23.2,5.5,29.92,NW,316,0.0,0.0,46,0.00,,SKC,0.00,VWS V14.01,2013-02-09 06:25:00,
2013-02-08 22:30:00,23.4,5.7,29.92,NW,316,0.0,0.0,46,0.00,,SKC,0.00,VWS V14.01,2013-02-09 06:30:00,
2013-02-08 22:35:00,23.2,5.5,29.92,NW,316,0.0,0.0,46,0.00,,SKC,0.00,VWS V14.01,2013-02-09 06:35:00,
2013-02-08 22:40:00,22.8,5.2,29.92,NW,316,0.0,0.0,46,0.00,,SKC,0.00,VWS V14.01,2013-02-09 06:40:00,
2013-02-08 22:45:00,22.3,5.1,29.92,NW,316,0.0,0.0,47,0.00,,SKC,0.00,VWS V14.01,2013-02-09 06:45:00,
2013-02-08 22:50:00,21.9,5.2,29.92,NW,316,0.0,0.0,48,0.00,,SKC,0.00,VWS V14.01,2013-02-09 06:50:00,
2013-02-08 22:55:00,21.4,6.5,29.92,NW,316,0.0,0.0,52,0.00,,SKC,0.00,VWS V14.01,2013-02-09 06:55:00,
2013-02-08 23:00:00,21.6,6.7,29.92,NW,316,0.0,0.0,52,0.00,,SKC,0.00,VWS V14.01,2013-02-09 07:00:00,
2013-02-08 23:05:00,21.4,6.9,29.89,NW,316,0.0,0.0,53,0.00,,SKC,0.00,VWS V14.01,2013-02-09 07:05:00,
2013-02-08 23:10:00,21.2,6.8,29.89,NW,316,0.0,0.0,53,0.00,,SKC,0.00,VWS V14.01,2013-02-09 07:10:00,
2013-02-08 23:15:00,21.6,7.5,29.89,NW,316,0.0,0.0,54,0.00,,SKC,0.00,VWS V14.01,2013-02-09 07:15:00,
2013-02-08 23:20:00,21.6,7.5,29.92,NW,318,0.0,0.0,54,0.00,,SKC,0.00,VWS V14.01,2013-02-09 07:20:00,
2013-02-08 23:25:00,21.6,7.1,29.92,NW,318,0.0,0.0,53,0.00,,SKC,0.00,VWS V14.01,2013-02-09 07:25:00,
2013-02-08 23:30:00,21.9,7.4,29.92,NW,319,0.0,0.0,53,0.00,,SKC,0.00,VWS V14.01,2013-02-09 07:30:00,
2013-02-08 23:35:00,21.6,6.7,29.92,NW,319,0.0,0.0,52,0.00,,SKC,0.00,VWS V14.01,2013-02-09 07:35:00,
2013-02-08 23:40:00,21.2,6.8,29.92,NW,319,0.0,0.0,53,0.00,,SKC,0.00,VWS V14.01,2013-02-09 07:40:00,
2013-02-08 23:45:00,21.2,6.8,29.92,NW,319,0.0,0.0,53,0.00,,SKC,0.00,VWS V14.01,2013-02-09 07:45:00,
2013-02-08 23:50:00,21.2,6.8,29.92,NW,319,0.0,0.0,53,0.00,,SKC,0.00,VWS V14.01,2013-02-09 07:50:00,
2013-02-08 23:55:00,21.4,6.9,29.92,NW,319,0.0,0.0,53,0.00,,SKC,0.00,VWS V14.01,2013-02-09 07:55:00,